Oroville, CA

11:33 PM PDT on June 28, 2017 (GMT -0700)
Oroville Municipal

Weather History for KOVE - March, 2014

Change the Weather History Date:

Monday, March 17, 2014

  Actual Average Record
Temperature  
Mean Temperature 59 °F -  
Max Temperature 68 °F 65 °F 85 °F (1972)
Min Temperature 50 °F 44 °F 33 °F (1955)
Degree Days  
Heating Degree Days 6    
Growing Degree Days 9 (Base 50)    
Moisture  
Dew Point 36 °F    
Average Humidity 44    
Maximum Humidity 66    
Minimum Humidity 24    
Precipitation  
Precipitation 0.00 in - - ()
Sea Level Pressure  
Sea Level Pressure 30.07 in    
Wind  
Wind Speed 11 mph (NW)    
Max Wind Speed 17 mph    
Max Gust Speed 26 mph    
Visibility 10 miles    
Events      
Averages and records for this station are not official NWS values.
T = Trace of Precipitation, MM = Missing Value Source: NWS Daily Summary

Daily Weather History Graph

Daily Weather History Graph

Search for Another Location

Airport or City:

Trip Planner

Search our weather history database for the weather conditions in past years. The results will help you decide how hot, cold, wet, or windy it might be!

Date:

Astronomy

Mar. 17, 2014 Rise Set
Actual Time 7:14 AM PDT 7:15 PM PDT
Civil Twilight 6:47 AM PDT 7:42 PM PDT
Nautical Twilight 6:16 AM PDT 8:13 PM PDT
Astronomical Twilight 5:44 AM PDT 8:45 PM PDT
Moon 8:37 PM PDT (3/17) 7:33 AM PDT (3/17)
Length of Visible Light 12h 54m
Length of Day
12h 01m
Full, 99% of the Moon is Illuminated
Mar 17
Full
Mar 23
Last Quarter
Mar 30
New
Apr 7
First Quarter
Apr 15
Full

Hourly Weather History & Observations

Time (PDT) Temp. Dew Point Humidity Pressure Visibility Wind Dir Wind Speed Gust Speed Precip Events Conditions
12:53 AM 61.0 °F 39.9 °F 46% 30.07 in 10.0 mi SSE 16.1 mph 23.0 mph N/A   Clear
1:53 AM 59.0 °F 39.0 °F 48% 30.10 in 10.0 mi SSE 11.5 mph - N/A   Clear
2:53 AM 57.0 °F 39.0 °F 51% 30.09 in 10.0 mi SSE 17.3 mph - N/A   Partly Cloudy
3:53 AM 55.0 °F 39.0 °F 55% 30.09 in 10.0 mi SSE 16.1 mph 21.9 mph N/A   Clear
4:53 AM 53.1 °F 37.9 °F 57% 30.12 in 10.0 mi ESE 5.8 mph - N/A   Clear
5:53 AM 52.0 °F 37.9 °F 59% 30.11 in 10.0 mi SE 4.6 mph - N/A   Clear
6:53 AM 50.0 °F 37.9 °F 63% 30.11 in 10.0 mi SSE 4.6 mph - N/A   Clear
7:53 AM 50.0 °F 39.0 °F 66% 30.15 in 10.0 mi NNW 4.6 mph - N/A   Clear
8:53 AM 55.0 °F 42.1 °F 62% 30.16 in 10.0 mi West 5.8 mph - N/A   Clear
9:53 AM 57.9 °F 37.0 °F 46% 30.16 in 10.0 mi Variable 3.5 mph - N/A   Clear
10:53 AM 60.1 °F 39.9 °F 47% 30.15 in 10.0 mi Variable 4.6 mph - N/A   Clear
11:53 AM 63.0 °F 39.9 °F 43% 30.13 in 10.0 mi NNW 5.8 mph - N/A   Clear
12:53 PM 64.9 °F 37.9 °F 37% 30.12 in 10.0 mi WNW 9.2 mph - N/A   Clear
1:53 PM 66.9 °F 33.1 °F 28% 30.08 in 10.0 mi NW 13.8 mph 26.5 mph N/A   Clear
2:53 PM 66.9 °F 32.0 °F 27% 30.06 in 10.0 mi NW 15.0 mph 24.2 mph N/A   Clear
3:53 PM 68.0 °F 30.0 °F 24% 30.04 in 10.0 mi NW 15.0 mph 24.2 mph N/A   Clear
4:53 PM 66.9 °F 30.0 °F 25% 30.01 in 10.0 mi NW 12.7 mph 26.5 mph N/A   Clear
5:53 PM 66.0 °F 30.9 °F 27% 30.00 in 10.0 mi NW 10.4 mph 25.3 mph N/A   Clear
6:53 PM 63.0 °F 30.0 °F 29% 29.98 in 10.0 mi NW 11.5 mph 20.7 mph N/A   Clear
7:53 PM 59.0 °F 32.0 °F 36% 29.98 in 10.0 mi NW 9.2 mph - N/A   Clear
8:53 PM 57.0 °F 32.0 °F 39% 29.99 in 10.0 mi NW 10.4 mph - N/A   Clear
9:53 PM 55.9 °F 32.0 °F 40% 30.00 in 10.0 mi NW 8.1 mph - N/A   Clear
10:53 PM 52.0 °F 34.0 °F 50% 30.02 in 10.0 mi NW 8.1 mph - N/A   Clear
11:53 PM 51.1 °F 30.9 °F 46% 30.02 in 10.0 mi NNW 10.4 mph - N/A   Clear